time, Switch, Flow(0), Analog(2)
yyyy/mm/dd HH:MM:SS.fff, True=FILTERED|False=TOTAL, L/min, V
2023/06/11 00:00:00.358, True, 4.643, 0.143893
2023/06/11 00:00:00.854, True, 5.054, 0.142443
2023/06/11 00:00:01.358, True, 4.642, 0.143435
2023/06/11 00:00:01.854, True, 5.055, 0.142519
2023/06/11 00:00:02.357, True, 4.980, 0.141756
2023/06/11 00:00:02.862, True, 4.636, 0.141909
2023/06/11 00:00:03.358, True, 4.380, 0.142519
2023/06/11 00:00:03.862, True, 3.979, 0.140688
2023/06/11 00:00:04.366, True, 2.653, 0.141909
2023/06/11 00:00:04.862, True, 1.348, 0.141680
2023/06/11 00:00:05.366, True, 0.995, 0.142824
2023/06/11 00:00:05.870, True, 0.995, 0.141604
2023/06/11 00:00:06.366, True, 0.674, 0.141604
2023/06/11 00:00:06.870, True, 0.663, 0.140536
2023/06/11 00:00:07.374, True, 0.995, 0.143206
2023/06/11 00:00:07.870, True, 0.674, 0.143893
2023/06/11 00:00:08.374, True, 0.663, 0.142290
2023/06/11 00:00:08.877, True, 0.663, 0.141375
2023/06/11 00:00:09.374, True, 0.674, 0.143816
2023/06/11 00:00:09.877, True, 0.995, 0.141909
2023/06/11 00:00:10.381, True, 0.663, 0.142977
2023/06/11 00:00:10.877, True, 0.674, 0.142443
2023/06/11 00:00:11.382, True, 0.663, 0.142214
2023/06/11 00:00:11.886, True, 0.995, 0.142061
2023/06/11 00:00:12.381, True, 0.674, 0.141604
2023/06/11 00:00:12.885, True, 0.663, 0.144121
2023/06/11 00:00:13.390, True, 0.664, 0.140917
2023/06/11 00:00:13.886, True, 0.674, 0.138933
2023/06/11 00:00:14.390, True, 0.662, 0.142138
2023/06/11 00:00:14.894, True, 0.664, 0.142061
2023/06/11 00:00:15.390, True, 0.674, 0.142214
2023/06/11 00:00:15.894, True, 0.664, 0.142824
2023/06/11 00:00:16.398, True, 0.663, 0.143053
2023/06/11 00:00:16.894, True, 0.674, 0.143359
2023/06/11 00:00:17.398, True, 0.663, 0.143359
2023/06/11 00:00:17.901, True, 0.663, 0.144045
2023/06/11 00:00:18.398, True, 1.013, 0.144121
2023/06/11 00:00:18.901, True, 0.663, 0.142290
2023/06/11 00:00:19.406, True, 0.662, 0.141222
2023/06/11 00:00:19.902, True, 0.674, 0.141756
2023/06/11 00:00:20.405, True, 0.664, 0.141680
2023/06/11 00:00:20.910, True, 0.663, 0.142367
2023/06/11 00:00:21.405, True, 0.675, 0.140688
2023/06/11 00:00:21.909, True, 0.662, 0.142672
2023/06/11 00:00:22.414, True, 0.996, 0.142824
2023/06/11 00:00:22.910, True, 0.673, 0.142901
2023/06/11 00:00:23.414, True, 0.664, 0.141680
2023/06/11 00:00:23.918, True, 0.662, 0.141375
2023/06/11 00:00:24.414, True, 0.674, 0.142061
2023/06/11 00:00:24.918, True, 0.663, 0.140154
2023/06/11 00:00:25.414, True, 1.011, 0.143587
2023/06/11 00:00:25.918, True, 0.663, 0.142061
2023/06/11 00:00:26.422, True, 0.663, 0.143511
2023/06/11 00:00:26.926, True, 0.663, 0.142061
2023/06/11 00:00:27.422, True, 0.674, 0.143053
2023/06/11 00:00:27.926, True, 0.995, 0.143816
2023/06/11 00:00:28.422, True, 0.674, 0.141985
2023/06/11 00:00:28.926, True, 0.663, 0.146792
2023/06/11 00:00:29.430, True, 0.663, 0.140841
2023/06/11 00:00:29.934, True, 0.663, 0.143816
2023/06/11 00:00:30.430, True, 0.675, 0.141527
2023/06/11 00:00:30.934, True, 0.993, 0.143740
2023/06/11 00:00:31.438, True, 0.663, 0.144045
2023/06/11 00:00:31.942, True, 0.663, 0.143282
2023/06/11 00:00:32.438, True, 0.675, 0.144198
2023/06/11 00:00:32.942, True, 0.662, 0.141604
2023/06/11 00:00:33.446, True, 0.663, 0.146639
2023/06/11 00:00:33.942, True, 0.674, 0.141222
2023/06/11 00:00:34.446, True, 0.663, 0.142367
2023/06/11 00:00:34.950, True, 0.663, 0.141146
2023/06/11 00:00:35.446, True, 1.011, 0.143130
2023/06/11 00:00:35.950, True, 0.663, 0.143740
2023/06/11 00:00:36.454, True, 0.663, 0.142214
2023/06/11 00:00:36.958, True, 0.663, 0.140230
2023/06/11 00:00:37.454, True, 0.674, 0.140841
2023/06/11 00:00:37.958, True, 0.664, 0.142214
2023/06/11 00:00:38.462, True, 0.662, 0.141222
2023/06/11 00:00:38.958, True, 0.674, 0.143511
2023/06/11 00:00:39.462, True, 0.995, 0.145113
2023/06/11 00:00:39.965, True, 0.663, 0.142672
2023/06/11 00:00:40.462, True, 0.674, 0.141756
2023/06/11 00:00:40.966, True, 0.663, 0.141146
2023/06/11 00:00:41.470, True, 0.663, 0.142443
2023/06/11 00:00:41.966, True, 0.674, 0.141756
2023/06/11 00:00:42.470, True, 0.996, 0.143435
2023/06/11 00:00:42.966, True, 0.674, 0.143206
2023/06/11 00:00:43.470, True, 0.662, 0.141756
2023/06/11 00:00:43.974, True, 0.663, 0.144045
2023/06/11 00:00:44.478, True, 0.663, 0.140383
2023/06/11 00:00:44.974, True, 0.674, 0.145418
2023/06/11 00:00:45.478, True, 0.995, 0.143816
2023/06/11 00:00:45.982, True, 0.663, 0.144656
2023/06/11 00:00:46.478, True, 0.674, 0.142138
2023/06/11 00:00:46.982, True, 0.663, 0.144198
2023/06/11 00:00:47.477, True, 0.674, 0.141833
2023/06/11 00:00:47.982, True, 0.663, 0.145266
2023/06/11 00:00:48.486, True, 0.995, 0.143511
2023/06/11 00:00:48.982, True, 0.674, 0.143969
2023/06/11 00:00:49.486, True, 0.663, 0.141146
2023/06/11 00:00:49.990, True, 0.663, 0.145418
2023/06/11 00:00:50.486, True, 0.674, 0.141604
2023/06/11 00:00:50.990, True, 0.663, 0.141833
2023/06/11 00:00:51.494, True, 0.995, 0.150607
2023/06/11 00:00:51.990, True, 0.674, 0.142214
2023/06/11 00:00:52.493, True, 0.663, 0.143816
2023/06/11 00:00:52.998, True, 0.663, 0.140841
2023/06/11 00:00:53.493, True, 0.675, 0.148775
2023/06/11 00:00:53.998, True, 0.663, 0.139925
2023/06/11 00:00:54.502, True, 0.663, 0.142138
2023/06/11 00:00:54.998, True, 0.674, 0.142596
2023/06/11 00:00:55.502, True, 0.663, 0.141985
2023/06/11 00:00:56.005, True, 0.995, 0.141375
2023/06/11 00:00:56.502, True, 0.674, 0.142672
2023/06/11 00:00:57.005, True, 0.663, 0.143740
2023/06/11 00:00:57.510, True, 0.664, 0.140688
2023/06/11 00:00:58.006, True, 0.674, 0.141756
2023/06/11 00:00:58.509, True, 0.663, 0.142290
2023/06/11 00:00:59.014, True, 0.663, 0.139925
2023/06/11 00:00:59.510, True, 0.674, 0.155795
2023/06/11 00:01:00.013, True, 0.995, 0.139925
2023/06/11 00:01:00.518, True, 0.664, 0.142977
2023/06/11 00:01:01.014, True, 0.673, 0.140688
2023/06/11 00:01:01.517, True, 0.663, 0.142367
2023/06/11 00:01:02.022, True, 0.663, 0.144427
2023/06/11 00:01:02.517, True, 0.674, 0.141527
2023/06/11 00:01:03.021, True, 0.663, 0.141146
2023/06/11 00:01:03.526, True, 0.664, 0.141680
2023/06/11 00:01:04.022, True, 0.673, 0.144274
2023/06/11 00:01:04.525, True, 0.663, 0.140536
2023/06/11 00:01:05.022, True, 1.011, 0.141604
2023/06/11 00:01:05.526, True, 0.663, 0.143130
2023/06/11 00:01:06.030, True, 0.663, 0.143740
2023/06/11 00:01:06.526, True, 0.673, 0.142519
2023/06/11 00:01:07.029, True, 0.664, 0.140002
2023/06/11 00:01:07.534, True, 0.993, 0.141985
2023/06/11 00:01:08.038, True, 0.663, 0.141985
2023/06/11 00:01:08.533, True, 0.674, 0.140459
2023/06/11 00:01:09.038, True, 0.663, 0.142061
2023/06/11 00:01:09.542, True, 0.663, 0.140383
2023/06/11 00:01:10.038, True, 0.674, 0.142214
2023/06/11 00:01:10.542, True, 0.663, 0.143893
2023/06/11 00:01:11.046, True, 0.663, 0.141527
2023/06/11 00:01:11.542, True, 1.011, 0.142443
2023/06/11 00:01:12.046, True, 0.663, 0.140688
2023/06/11 00:01:12.550, True, 0.663, 0.142214
2023/06/11 00:01:13.045, True, 0.674, 0.141146
2023/06/11 00:01:13.550, True, 0.663, 0.141146
2023/06/11 00:01:14.054, True, 0.995, 0.142596
2023/06/11 00:01:14.550, True, 0.674, 0.142061
2023/06/11 00:01:15.054, True, 0.663, 0.142519
2023/06/11 00:01:15.558, True, 0.663, 0.143969
2023/06/11 00:01:16.054, True, 0.674, 0.141299
2023/06/11 00:01:16.558, True, 0.663, 0.139467
2023/06/11 00:01:17.062, True, 0.995, 0.141680
2023/06/11 00:01:17.558, True, 0.674, 0.142977
2023/06/11 00:01:18.062, True, 0.663, 0.144350
2023/06/11 00:01:18.566, True, 0.663, 0.143511
2023/06/11 00:01:19.062, True, 0.675, 0.143893
2023/06/11 00:01:19.566, True, 0.662, 0.143587
2023/06/11 00:01:20.069, True, 0.663, 0.144045
2023/06/11 00:01:20.566, True, 0.674, 0.145113
2023/06/11 00:01:21.070, True, 0.663, 0.142138
2023/06/11 00:01:21.574, True, 0.663, 0.144579
2023/06/11 00:01:22.070, True, 0.674, 0.143816
2023/06/11 00:01:22.574, True, 0.995, 0.144121
2023/06/11 00:01:23.077, True, 0.664, 0.145495
2023/06/11 00:01:23.582, True, 0.663, 0.143206
2023/06/11 00:01:24.078, True, 0.675, 0.143435
2023/06/11 00:01:24.582, True, 0.662, 0.144274
2023/06/11 00:01:25.086, True, 0.663, 0.144427
2023/06/11 00:01:25.582, True, 0.674, 0.146868
2023/06/11 00:01:26.086, True, 0.995, 0.143511
2023/06/11 00:01:26.590, True, 0.663, 0.145495
2023/06/11 00:01:27.086, True, 0.674, 0.144503
2023/06/11 00:01:27.590, True, 0.663, 0.144732
2023/06/11 00:01:28.094, True, 0.663, 0.146029
2023/06/11 00:01:28.590, True, 0.674, 0.147707
2023/06/11 00:01:29.094, True, 0.663, 0.146410
2023/06/11 00:01:29.598, True, 0.663, 0.146715
2023/06/11 00:01:30.093, True, 0.674, 0.147555
2023/06/11 00:01:30.598, True, 0.995, 0.148470
2023/06/11 00:01:31.102, True, 0.663, 0.146868
2023/06/11 00:01:31.598, True, 0.674, 0.148775
2023/06/11 00:01:32.102, True, 0.663, 0.147021
2023/06/11 00:01:32.605, True, 0.663, 0.148470
2023/06/11 00:01:33.102, True, 0.674, 0.150378
2023/06/11 00:01:33.606, True, 0.995, 0.149691
2023/06/11 00:01:34.109, True, 0.663, 0.148852
2023/06/11 00:01:34.613, True, 0.663, 0.150454
2023/06/11 00:01:35.110, True, 0.674, 0.151598
2023/06/11 00:01:35.613, True, 0.663, 0.148318
2023/06/11 00:01:36.117, True, 0.663, 0.148394
2023/06/11 00:01:36.614, True, 0.674, 0.150225
2023/06/11 00:01:37.117, True, 0.995, 0.152514
2023/06/11 00:01:37.621, True, 0.663, 0.151904
2023/06/11 00:01:38.117, True, 0.674, 0.150378
2023/06/11 00:01:38.622, True, 0.663, 0.153429
2023/06/11 00:01:39.125, True, 0.663, 0.151369
2023/06/11 00:01:39.621, True, 0.674, 0.150072
2023/06/11 00:01:40.126, True, 0.663, 0.151598
2023/06/11 00:01:40.630, True, 0.996, 0.150759
2023/06/11 00:01:41.126, True, 0.673, 0.152667
2023/06/11 00:01:41.629, True, 0.663, 0.151369
2023/06/11 00:01:42.134, True, 0.663, 0.150759
2023/06/11 00:01:42.630, True, 0.674, 0.152514
2023/06/11 00:01:43.134, True, 0.663, 0.153811
2023/06/11 00:01:43.638, True, 0.663, 0.153811
2023/06/11 00:01:44.133, True, 1.011, 0.153582
2023/06/11 00:01:44.638, True, 0.663, 0.154879
2023/06/11 00:01:45.142, True, 0.663, 0.154726
2023/06/11 00:01:45.638, True, 0.674, 0.152972
2023/06/11 00:01:46.142, True, 0.664, 0.152285
2023/06/11 00:01:46.646, True, 0.662, 0.153887
2023/06/11 00:01:47.142, True, 0.674, 0.156329
2023/06/11 00:01:47.646, True, 0.663, 0.155261
2023/06/11 00:01:48.150, True, 0.663, 0.155871
2023/06/11 00:01:48.646, True, 1.010, 0.156481
2023/06/11 00:01:49.150, True, 0.664, 0.154040
2023/06/11 00:01:49.654, True, 0.663, 0.156939
2023/06/11 00:01:50.150, True, 0.673, 0.156100
2023/06/11 00:01:50.654, True, 0.996, 0.157168
2023/06/11 00:01:51.158, True, 0.663, 0.155795
2023/06/11 00:01:51.654, True, 0.674, 0.157321
2023/06/11 00:01:52.158, True, 0.664, 0.157626
2023/06/11 00:01:52.662, True, 0.662, 0.156176
2023/06/11 00:01:53.158, True, 0.675, 0.155947
2023/06/11 00:01:53.661, True, 0.663, 0.157702
2023/06/11 00:01:54.166, True, 0.662, 0.155413
2023/06/11 00:01:54.662, True, 1.012, 0.156023
2023/06/11 00:01:55.166, True, 0.663, 0.155337
2023/06/11 00:01:55.670, True, 0.663, 0.156329
2023/06/11 00:01:56.166, True, 0.674, 0.155718
2023/06/11 00:01:56.670, True, 0.663, 0.156023
2023/06/11 00:01:57.174, True, 0.995, 0.158007
2023/06/11 00:01:57.670, True, 0.674, 0.156939
2023/06/11 00:01:58.174, True, 0.663, 0.160983
2023/06/11 00:01:58.678, True, 0.663, 0.156023
2023/06/11 00:01:59.174, True, 0.674, 0.157015
2023/06/11 00:01:59.678, True, 0.663, 0.156558
2023/06/11 00:02:00.182, True, 0.663, 0.156329
2023/06/11 00:02:00.678, True, 1.012, 0.155871
2023/06/11 00:02:01.182, True, 0.662, 0.158236
2023/06/11 00:02:01.678, True, 0.674, 0.157473
2023/06/11 00:02:02.182, True, 0.663, 0.155947
2023/06/11 00:02:02.685, True, 0.663, 0.155642
2023/06/11 00:02:03.182, True, 0.674, 0.155718
2023/06/11 00:02:03.686, True, 0.663, 0.160372
2023/06/11 00:02:04.190, True, 0.663, 0.156558
2023/06/11 00:02:04.686, True, 0.674, 0.155871
2023/06/11 00:02:05.190, True, 0.995, 0.157321
2023/06/11 00:02:05.694, True, 0.663, 0.158160
2023/06/11 00:02:06.190, True, 0.674, 0.156558
2023/06/11 00:02:06.694, True, 0.663, 0.156405
2023/06/11 00:02:07.198, True, 0.663, 0.156634
2023/06/11 00:02:07.694, True, 0.674, 0.158618
2023/06/11 00:02:08.198, True, 0.663, 0.158083
2023/06/11 00:02:08.694, True, 0.674, 0.157321
2023/06/11 00:02:09.198, True, 0.995, 0.156023
2023/06/11 00:02:09.701, True, 0.663, 0.155718
2023/06/11 00:02:10.206, True, 0.663, 0.157931
2023/06/11 00:02:10.702, True, 0.674, 0.156481
2023/06/11 00:02:11.206, True, 0.663, 0.157397
2023/06/11 00:02:11.702, True, 0.675, 0.155566
2023/06/11 00:02:12.206, True, 0.662, 0.158007
2023/06/11 00:02:12.710, True, 0.995, 0.154879
2023/06/11 00:02:13.206, True, 0.674, 0.156176
2023/06/11 00:02:13.709, True, 0.663, 0.159686
2023/06/11 00:02:14.214, True, 0.663, 0.156481
2023/06/11 00:02:14.710, True, 0.674, 0.157168
2023/06/11 00:02:15.214, True, 0.663, 0.157015
2023/06/11 00:02:15.718, True, 0.663, 0.157931
2023/06/11 00:02:16.214, True, 0.674, 0.156786
2023/06/11 00:02:16.718, True, 0.663, 0.160296
2023/06/11 00:02:17.213, True, 0.674, 0.157931
2023/06/11 00:02:17.717, True, 0.663, 0.156176
2023/06/11 00:02:18.222, True, 0.995, 0.162356
2023/06/11 00:02:18.718, True, 0.674, 0.156405
2023/06/11 00:02:19.222, True, 0.663, 0.155261
2023/06/11 00:02:19.726, True, 0.663, 0.156023
2023/06/11 00:02:20.222, True, 1.011, 0.155947
2023/06/11 00:02:20.726, True, 0.663, 0.154345
2023/06/11 00:02:21.230, True, 0.663, 0.156329
2023/06/11 00:02:21.725, True, 0.674, 0.158160
2023/06/11 00:02:22.229, True, 0.663, 0.156939
2023/06/11 00:02:22.734, True, 0.663, 0.158160
2023/06/11 00:02:23.230, True, 0.674, 0.155413
2023/06/11 00:02:23.734, True, 0.663, 0.156710
2023/06/11 00:02:24.238, True, 0.996, 0.157092
2023/06/11 00:02:24.742, True, 0.663, 0.157702
2023/06/11 00:02:25.238, True, 0.674, 0.155032
2023/06/11 00:02:25.742, True, 0.663, 0.156710
2023/06/11 00:02:26.246, True, 0.663, 0.156252
2023/06/11 00:02:26.742, True, 0.674, 0.156558
2023/06/11 00:02:27.246, True, 0.995, 0.158083
2023/06/11 00:02:27.750, True, 0.663, 0.158007
2023/06/11 00:02:28.246, True, 0.674, 0.157473
2023/06/11 00:02:28.749, True, 0.664, 0.156481
2023/06/11 00:02:29.254, True, 0.662, 0.157931
2023/06/11 00:02:29.749, True, 0.674, 0.156786
2023/06/11 00:02:30.254, True, 0.995, 0.156100
2023/06/11 00:02:30.758, True, 0.663, 0.157626
2023/06/11 00:02:31.254, True, 0.674, 0.156176
2023/06/11 00:02:31.758, True, 0.663, 0.156634
2023/06/11 00:02:32.261, True, 0.663, 0.157931
2023/06/11 00:02:32.758, True, 0.674, 0.159686
2023/06/11 00:02:33.262, True, 0.663, 0.156252
2023/06/11 00:02:33.766, True, 0.663, 0.157092
2023/06/11 00:02:34.262, True, 1.011, 0.157626
2023/06/11 00:02:34.766, True, 0.663, 0.158007
2023/06/11 00:02:35.270, True, 0.663, 0.158083
2023/06/11 00:02:35.766, True, 0.674, 0.157702
2023/06/11 00:02:36.270, True, 0.663, 0.159991
2023/06/11 00:02:36.774, True, 0.663, 0.155947
2023/06/11 00:02:37.270, True, 0.674, 0.158541
2023/06/11 00:02:37.773, True, 0.663, 0.158160
2023/06/11 00:02:38.278, True, 0.995, 0.157015
2023/06/11 00:02:38.782, True, 0.663, 0.155718
2023/06/11 00:02:39.278, True, 0.674, 0.157702
2023/06/11 00:02:39.782, True, 0.664, 0.157778
2023/06/11 00:02:40.286, True, 0.663, 0.156634
2023/06/11 00:02:40.782, True, 0.674, 0.158007
2023/06/11 00:02:41.286, True, 0.663, 0.156786
2023/06/11 00:02:41.790, True, 0.663, 0.156329
2023/06/11 00:02:42.285, True, 1.011, 0.156176
2023/06/11 00:02:42.790, True, 0.663, 0.158541
2023/06/11 00:02:43.294, True, 0.663, 0.157702
2023/06/11 00:02:43.798, True, 0.664, 0.156939
2023/06/11 00:02:44.294, True, 0.674, 0.157015
2023/06/11 00:02:44.798, True, 0.663, 0.158007
2023/06/11 00:02:45.302, True, 0.663, 0.157092
2023/06/11 00:02:45.798, True, 1.011, 0.156939
2023/06/11 00:02:46.302, True, 0.663, 0.156939
2023/06/11 00:02:46.806, True, 0.663, 0.158236
2023/06/11 00:02:47.302, True, 0.674, 0.157168
2023/06/11 00:02:47.806, True, 0.663, 0.154726
2023/06/11 00:02:48.302, True, 0.674, 0.156710
2023/06/11 00:02:48.806, True, 0.663, 0.157168
2023/06/11 00:02:49.310, True, 0.663, 0.158541
2023/06/11 00:02:49.806, True, 0.674, 0.156786
2023/06/11 00:02:50.309, True, 0.663, 0.155184
2023/06/11 00:02:50.813, True, 0.665, 0.159380
2023/06/11 00:02:51.309, True, 0.673, 0.158923
2023/06/11 00:02:51.814, True, 0.663, 0.157397
2023/06/11 00:02:52.318, True, 0.663, 0.156939
2023/06/11 00:02:52.814, True, 1.011, 0.158846
2023/06/11 00:02:53.318, True, 0.663, 0.155718
2023/06/11 00:02:53.821, True, 0.663, 0.155871
2023/06/11 00:02:54.318, True, 0.674, 0.155108
2023/06/11 00:02:54.821, True, 0.663, 0.156863
2023/06/11 00:02:55.326, True, 0.663, 0.157549
2023/06/11 00:02:55.822, True, 0.674, 0.156786
2023/06/11 00:02:56.326, True, 0.663, 0.157549
2023/06/11 00:02:56.830, True, 0.663, 0.157397
2023/06/11 00:02:57.326, True, 1.011, 0.155032
2023/06/11 00:02:57.829, True, 0.663, 0.157626
2023/06/11 00:02:58.334, True, 0.663, 0.157626
2023/06/11 00:02:58.838, True, 0.663, 0.156023
2023/06/11 00:02:59.334, True, 0.674, 0.155718
2023/06/11 00:02:59.838, True, 0.663, 0.158846
2023/06/11 00:03:00.334, True, 0.674, 0.155032
2023/06/11 00:03:00.837, True, 0.663, 0.156863
2023/06/11 00:03:01.342, True, 0.663, 0.155489
2023/06/11 00:03:01.838, True, 0.674, 0.156634
2023/06/11 00:03:02.342, True, 0.663, 0.154650
2023/06/11 00:03:02.846, True, 0.663, 0.157626
2023/06/11 00:03:03.341, True, 0.674, 0.155718
2023/06/11 00:03:03.846, True, 0.664, 0.155718
2023/06/11 00:03:04.350, True, 0.663, 0.157702
2023/06/11 00:03:04.845, True, 1.009, 0.156329
2023/06/11 00:03:05.349, True, 0.664, 0.158389
2023/06/11 00:03:05.854, True, 0.663, 0.154498
2023/06/11 00:03:06.350, True, 0.674, 0.157473
2023/06/11 00:03:06.853, True, 0.664, 0.159380
2023/06/11 00:03:07.357, True, 0.663, 0.155413
2023/06/11 00:03:07.854, True, 0.674, 0.155566
2023/06/11 00:03:08.357, True, 0.663, 0.157626
2023/06/11 00:03:08.861, True, 0.663, 0.158923
2023/06/11 00:03:09.357, True, 0.674, 0.156710
2023/06/11 00:03:09.861, True, 0.664, 0.156710
2023/06/11 00:03:10.365, True, 0.663, 0.157168
2023/06/11 00:03:10.861, True, 0.675, 0.155489
2023/06/11 00:03:11.365, True, 0.662, 0.154421
2023/06/11 00:03:11.869, True, 0.995, 0.157092
2023/06/11 00:03:12.373, True, 0.663, 0.157473
2023/06/11 00:03:12.869, True, 0.674, 0.156176
2023/06/11 00:03:13.373, True, 0.664, 0.156405
2023/06/11 00:03:13.869, True, 0.673, 0.154116
2023/06/11 00:03:14.373, True, 0.663, 0.156786
2023/06/11 00:03:14.877, True, 0.664, 0.157092
2023/06/11 00:03:15.382, True, 0.663, 0.158083
2023/06/11 00:03:15.877, True, 0.673, 0.155032
2023/06/11 00:03:16.381, True, 0.664, 0.157626
2023/06/11 00:03:16.878, True, 0.674, 0.156939
2023/06/11 00:03:17.381, True, 0.662, 0.155566
2023/06/11 00:03:17.885, True, 0.664, 0.156939
2023/06/11 00:03:18.390, True, 0.995, 0.154421
2023/06/11 00:03:18.885, True, 0.674, 0.157015
2023/06/11 00:03:19.390, True, 0.662, 0.156634
2023/06/11 00:03:19.886, True, 1.012, 0.154192
2023/06/11 00:03:20.390, True, 0.663, 0.157168
2023/06/11 00:03:20.894, True, 0.662, 0.155489
2023/06/11 00:03:21.397, True, 0.663, 0.156634
2023/06/11 00:03:21.894, True, 0.675, 0.155795
2023/06/11 00:03:22.398, True, 0.663, 0.155947
2023/06/11 00:03:22.902, True, 0.662, 0.156176
2023/06/11 00:03:23.397, True, 0.674, 0.154803
2023/06/11 00:03:23.901, True, 0.664, 0.154040
2023/06/11 00:03:24.406, True, 0.663, 0.157092
2023/06/11 00:03:24.909, True, 0.662, 0.158923
2023/06/11 00:03:25.405, True, 1.011, 0.156176
2023/06/11 00:03:25.909, True, 0.663, 0.156710
2023/06/11 00:03:26.413, True, 0.664, 0.157321
2023/06/11 00:03:26.909, True, 0.674, 0.156329
2023/06/11 00:03:27.413, True, 0.663, 0.156023
2023/06/11 00:03:27.918, True, 0.663, 0.156939
2023/06/11 00:03:28.413, True, 0.674, 0.155184
2023/06/11 00:03:28.917, True, 0.664, 0.157855
2023/06/11 00:03:29.421, True, 0.993, 0.154574
2023/06/11 00:03:29.917, True, 0.674, 0.156252
2023/06/11 00:03:30.421, True, 0.663, 0.161975
2023/06/11 00:03:30.925, True, 0.664, 0.156100
2023/06/11 00:03:31.421, True, 0.673, 0.154726
2023/06/11 00:03:31.925, True, 0.995, 0.157931
2023/06/11 00:03:32.429, True, 0.663, 0.156634
2023/06/11 00:03:32.925, True, 0.674, 0.154803
2023/06/11 00:03:33.429, True, 0.663, 0.155795
2023/06/11 00:03:33.933, True, 0.663, 0.156558
2023/06/11 00:03:34.429, True, 0.675, 0.154116
2023/06/11 00:03:34.933, True, 0.662, 0.157244
2023/06/11 00:03:35.437, True, 0.996, 0.155184
2023/06/11 00:03:35.933, True, 0.673, 0.155642
2023/06/11 00:03:36.437, True, 0.664, 0.154803
2023/06/11 00:03:36.941, True, 0.663, 0.153964
2023/06/11 00:03:37.437, True, 0.674, 0.155184
2023/06/11 00:03:37.941, True, 0.663, 0.156634
2023/06/11 00:03:38.445, True, 0.663, 0.155032
2023/06/11 00:03:38.941, True, 0.674, 0.156405
2023/06/11 00:03:39.446, True, 0.994, 0.155337
2023/06/11 00:03:39.949, True, 0.663, 0.155718
2023/06/11 00:03:40.446, True, 0.674, 0.154192
2023/06/11 00:03:40.949, True, 0.663, 0.156023
2023/06/11 00:03:41.453, True, 0.663, 0.155718
2023/06/11 00:03:41.949, True, 0.674, 0.155261
2023/06/11 00:03:42.453, True, 0.663, 0.156481
2023/06/11 00:03:42.957, True, 0.663, 0.153429
2023/06/11 00:03:43.453, True, 0.674, 0.155795
2023/06/11 00:03:43.957, True, 0.663, 0.156023
2023/06/11 00:03:44.453, True, 0.674, 0.156558
2023/06/11 00:03:44.957, True, 0.995, 0.155337
2023/06/11 00:03:45.461, True, 0.663, 0.157549
2023/06/11 00:03:45.957, True, 0.674, 0.154192
2023/06/11 00:03:46.461, True, 0.663, 0.154955
2023/06/11 00:03:46.965, True, 0.663, 0.154879
2023/06/11 00:03:47.461, True, 0.337, 0.155947
2023/06/11 00:03:47.965, True, 0.995, 0.154269
2023/06/11 00:03:48.469, True, 0.663, 0.156481
2023/06/11 00:03:48.965, True, 0.674, 0.154955
2023/06/11 00:03:49.470, True, 0.663, 0.156176
2023/06/11 00:03:49.973, True, 0.663, 0.156481
2023/06/11 00:03:50.469, True, 0.674, 0.155184
2023/06/11 00:03:50.973, True, 0.663, 0.153887
2023/06/11 00:03:51.477, True, 0.995, 0.155642
2023/06/11 00:03:51.973, True, 0.674, 0.153964
2023/06/11 00:03:52.477, True, 0.663, 0.155871
2023/06/11 00:03:52.981, True, 0.663, 0.154269
2023/06/11 00:03:53.477, True, 0.674, 0.155032
2023/06/11 00:03:53.981, True, 0.663, 0.154269
2023/06/11 00:03:54.485, True, 0.663, 0.154955
2023/06/11 00:03:54.981, True, 0.674, 0.153429
2023/06/11 00:03:55.485, True, 0.663, 0.153506
2023/06/11 00:03:55.989, True, 0.663, 0.156100
2023/06/11 00:03:56.485, True, 0.674, 0.156405
2023/06/11 00:03:56.989, True, 0.663, 0.156252
2023/06/11 00:03:57.493, True, 0.663, 0.155718
2023/06/11 00:03:57.989, True, 0.674, 0.152743
2023/06/11 00:03:58.493, True, 0.995, 0.155184
2023/06/11 00:03:58.997, True, 0.663, 0.155947
2023/06/11 00:03:59.493, True, 0.674, 0.155108
2023/06/11 00:03:59.997, True, 0.663, 0.156634
2023/06/11 00:04:00.501, True, 0.663, 0.155261
2023/06/11 00:04:00.997, True, 0.674, 0.153887
2023/06/11 00:04:01.501, True, 0.663, 0.155337
2023/06/11 00:04:02.005, True, 0.664, 0.154803
2023/06/11 00:04:02.501, True, 0.674, 0.154955
2023/06/11 00:04:03.005, True, 0.663, 0.154879
2023/06/11 00:04:03.509, True, 0.995, 0.155489
2023/06/11 00:04:04.005, True, 0.674, 0.153429
2023/06/11 00:04:04.509, True, 0.663, 0.157015
2023/06/11 00:04:05.005, True, 0.674, 0.155032
2023/06/11 00:04:05.509, True, 0.663, 0.155337
2023/06/11 00:04:06.013, True, 0.663, 0.158160
2023/06/11 00:04:06.509, True, 0.674, 0.157244
2023/06/11 00:04:07.013, True, 0.663, 0.153735
2023/06/11 00:04:07.517, True, 0.663, 0.153429
2023/06/11 00:04:08.021, True, 0.663, 0.154955
2023/06/11 00:04:08.517, True, 0.674, 0.155795
2023/06/11 00:04:09.021, True, 0.996, 0.156405
2023/06/11 00:04:09.525, True, 0.663, 0.156023